"2016-05-26 00:00:00",1666011,6.968,124.5,1.148,0.165,19.73,106.8908,16.92,17.83,34.04,0,110.7,13.08,17.73,86.5
"2016-05-26 00:00:30",1666012,6.984,123.8,2.061,0.073,19.84,106.8919,16.92,17.83,34.04,0,110.7,13.08,17.73,85.8
"2016-05-26 00:01:00",1666013,6.784,124.4,1.327,0.245,19.79,106.8919,16.92,17.84,33.99,0,110.7,13.08,17.73,86.4
"2016-05-26 00:01:30",1666014,7.105,124,0.953,0.076,19.79,106.8919,16.92,17.85,34.16,0,110.7,13.08,17.73,86.0
"2016-05-26 00:02:00",1666015,7.084,124.3,1.365,0.136,19.71,106.8919,16.92,17.88,34.32,0,110.7,13.08,17.73,86.3
"2016-05-26 00:02:30",1666016,7.139,121.1,1.123,0.137,19.65,106.8919,16.92,17.88,34.36,0,110.7,13.08,17.73,83.1
"2016-05-26 00:03:00",1666017,6.542,120.4,1.27,0.124,19.65,106.8919,16.92,17.88,34.37,0,110.7,13.07,17.73,82.4
"2016-05-26 00:03:30",1666018,6.84,121,1.797,0.164,19.76,106.8919,16.92,17.88,34.39,0,110.7,13.08,17.73,83.0
"2016-05-26 00:04:00",1666019,6.709,119.6,0.846,0.11,19.8,106.8919,16.92,17.9,34.42,0,110.7,13.08,17.73,81.6
"2016-05-26 00:04:30",1666020,6.299,120.4,1.95,0.222,19.7,106.893,16.92,17.91,34.56,0,110.7,13.07,17.73,82.4
"2016-05-26 00:05:00",1666021,6.212,120.1,0.765,0.12,19.71,106.8978,16.93,17.9,34.54,0,110.7,13.07,17.74,82.1
"2016-05-26 00:05:30",1666022,6.368,118.3,0.931,0.135,19.54,106.9113,16.97,17.92,34.46,0,110.7,13.07,17.78,80.3
"2016-05-26 00:06:00",1666023,6.435,119.6,1.751,0.192,19.5,106.9164,16.98,17.91,34.51,0,110.7,13.07,17.79,81.6
"2016-05-26 00:06:30",1666024,6.255,119.4,0.943,0.082,19.5,106.9223,17,17.92,34.56,0,110.7,13.07,17.81,81.4
"2016-05-26 00:07:00",1666025,6.066,117.5,1.728,0.199,19.57,106.9254,17,17.94,34.4,0,110.7,13.07,17.82,79.5
"2016-05-26 00:07:30",1666026,6.041,115.3,1.467,0.174,19.61,106.9257,17,17.94,34.25,0,110.7,13.07,17.82,77.3
"2016-05-26 00:08:00",1666027,6.129,112.8,1.702,0.133,19.58,106.9257,17,17.94,34.14,0,110.7,13.07,17.82,74.8
"2016-05-26 00:08:30",1666028,5.976,111.6,1.566,0.114,19.63,106.9257,17,17.95,34.15,0,110.7,13.07,17.82,73.6
"2016-05-26 00:09:00",1666029,5.923,109,0.897,0.092,19.51,106.9257,17,17.97,34.23,0,110.7,13.07,17.82,71.0
"2016-05-26 00:09:30",1666030,6.01,110.9,1.308,0.094,19.45,106.9257,17,17.96,34.19,0,110.7,13.07,17.82,72.9
"2016-05-26 00:10:00",1666031,6.064,112.3,1.583,0.137,19.38,106.9259,17.01,17.98,34.15,0,110.7,13.07,17.82,74.3
"2016-05-26 00:10:30",1666032,6.174,108.8,1.011,0.103,19.38,106.9268,17.01,17.99,34.06,0,110.7,13.07,17.82,70.8
"2016-05-26 00:11:00",1666033,6.242,109.8,1.287,0.123,19.43,106.9321,17.02,18,34,0,110.7,13.07,17.83,71.8
"2016-05-26 00:11:30",1666034,6.015,111.2,1.121,0.166,19.38,106.9389,17.04,18,34.22,0,110.7,13.07,17.85,73.2
"2016-05-26 00:12:00",1666035,5.907,111.6,0.738,0.108,19.29,106.9496,17.07,18,34.21,0,110.7,13.07,17.88,73.6
"2016-05-26 00:12:30",1666036,5.93,112.6,1.331,0.287,19.27,106.958,17.09,18.01,34.11,0,110.7,13.08,17.90,74.6
"2016-05-26 00:13:00",1666037,5.811,111.3,2.497,0.189,19.2,106.9595,17.09,18.02,33.86,0,110.7,13.08,17.90,73.3
"2016-05-26 00:13:30",1666038,5.672,110.9,1.149,0.087,19.1,106.9595,17.09,18.04,33.69,0,110.7,13.08,17.90,72.9
"2016-05-26 00:14:00",1666039,6.051,109.4,2.555,0.27,19.06,106.9595,17.09,18.05,33.89,0,110.7,13.08,17.90,71.4
"2016-05-26 00:14:30",1666040,6.104,111.1,2.186,0.15,19.09,106.9659,17.11,18.06,34.01,0,110.7,13.08,17.92,73.1
"2016-05-26 00:15:00",1666041,6.316,110.7,1.665,0.135,19.13,106.9862,17.16,18.07,33.8,0,110.7,13.08,17.97,72.7
"2016-05-26 00:15:30",1666042,6.309,112.3,1.121,0.091,19.19,106.9927,17.18,18.08,33.91,0,110.7,13.08,17.99,74.3
"2016-05-26 00:16:00",1666043,6.299,111.5,0.742,0.074,19.25,106.9932,17.18,18.1,33.78,0,110.7,13.08,17.99,73.5
"2016-05-26 00:16:30",1666044,6.436,112.2,1.712,0.154,19.3,106.9932,17.18,18.1,33.75,0,110.7,13.08,17.99,74.2
"2016-05-26 00:17:00",1666045,6.277,111.1,2.046,0.178,19.31,106.9932,17.18,18.13,33.71,0,110.7,13.08,17.99,73.1
"2016-05-26 00:17:30",1666046,6.443,106.8,0.938,0.163,19.3,106.9949,17.18,18.13,33.59,0,110.7,13.08,17.99,68.8
"2016-05-26 00:18:00",1666047,6.113,105.9,1.537,0.122,19.32,107.0104,17.22,18.15,33.74,0,110.7,13.08,18.03,67.9
"2016-05-26 00:18:30",1666048,6.031,108.1,2.074,0.201,19.28,107.0194,17.25,18.16,33.46,0,110.7,13.08,18.06,70.1
"2016-05-26 00:19:00",1666049,5.645,103.5,3.482,0.234,19.13,107.0225,17.25,18.15,33.71,0,110.7,13.08,18.07,65.5
"2016-05-26 00:19:30",1666050,5.584,105.5,0.973,0.108,19.23,107.0262,17.26,18.18,33.43,0,110.7,13.08,18.07,67.5
"2016-05-26 00:20:00",1666051,5.825,105.6,1.987,0.192,19.16,107.027,17.26,18.19,33.5,0,110.7,13.08,18.08,67.6
"2016-05-26 00:20:30",1666052,6.033,104.1,1.098,0.133,19.21,107.027,17.26,18.2,33.48,0,110.8,13.08,18.08,66.1
"2016-05-26 00:21:00",1666053,5.985,105.3,1.112,0.121,19.24,107.027,17.26,18.2,33.53,0,110.8,13.07,18.08,67.3
"2016-05-26 00:21:30",1666054,6.123,104,1.11,0.186,19.3,107.027,17.26,18.21,33.49,0,110.8,13.07,18.08,66.0
"2016-05-26 00:22:00",1666055,5.879,102.9,0.631,0.081,19.45,107.027,17.26,18.21,33.47,0,110.8,13.07,18.08,64.9
"2016-05-26 00:22:30",1666056,6.062,102,1.126,0.072,19.37,107.0261,17.26,18.23,33.55,0,110.8,13.07,18.07,64.0
"2016-05-26 00:23:00",1666057,5.895,105.4,1.129,0.181,19.39,107.027,17.26,18.21,33.75,0,110.8,13.07,18.08,67.4
"2016-05-26 00:23:30",1666058,5.717,106.4,1.042,0.075,19.37,107.0264,17.26,18.21,34.05,0,110.8,13.07,18.08,68.4
"2016-05-26 00:24:00",1666059,5.743,104.2,1.906,0.088,19.38,107.0267,17.26,18.22,34.02,0,110.8,13.07,18.08,66.2
"2016-05-26 00:24:30",1666060,5.741,102.7,1.413,0.126,19.47,107.027,17.26,18.22,33.84,0,110.8,13.07,18.08,64.7
"2016-05-26 00:25:00",1666061,5.786,100,0.932,0.236,19.42,107.0264,17.26,18.23,33.68,0,110.8,13.07,18.08,62.0
"2016-05-26 00:25:30",1666062,5.843,101.3,1.859,0.119,19.45,107.027,17.26,18.22,33.67,0,110.8,13.07,18.08,63.3
"2016-05-26 00:26:00",1666063,5.909,102.8,2.081,0.165,19.45,107.0241,17.26,18.23,34.01,0,110.8,13.07,18.07,64.8
"2016-05-26 00:26:30",1666064,5.905,106.2,1.526,0.221,19.35,107.0207,17.25,18.21,34.14,0,110.8,13.06,18.06,68.2
"2016-05-26 00:27:00",1666065,6.069,102.4,1.911,0.233,19.32,107.0191,17.24,18.21,34.11,0,110.8,13.06,18.06,64.4
"2016-05-26 00:27:30",1666066,6.306,102,1.023,0.162,19.34,107.0137,17.23,18.22,34.23,0,110.8,13.06,18.04,64.0
"2016-05-26 00:28:00",1666067,6.004,102.8,2.092,0.119,19.44,106.9992,17.19,18.2,34.45,0,110.8,13.07,18.01,64.8
"2016-05-26 00:28:30",1666068,6.069,100.4,1.861,0.106,19.42,106.9937,17.18,18.21,34.26,0,110.8,13.07,17.99,62.4
"2016-05-26 00:29:00",1666069,6.121,103.2,2.96,0.25,19.48,106.9908,17.17,18.19,34.15,0,110.8,13.07,17.98,65.2
"2016-05-26 00:29:30",1666070,6.06,107.3,1.597,0.262,19.49,106.9917,17.17,18.19,34.26,0,110.8,13.07,17.99,69.3
"2016-05-26 00:30:00",1666071,6.025,108.5,2.451,0.239,19.56,106.989,17.17,18.19,34.5,0,110.8,13.07,17.98,70.5
"2016-05-26 00:30:30",1666072,6.134,106,2.253,0.159,19.57,106.9893,17.17,18.18,34.57,0,110.8,13.07,17.98,68.0
"2016-05-26 00:31:00",1666073,6.416,108.3,2.338,0.201,19.64,106.9878,17.16,18.18,34.63,0,110.8,13.07,17.98,70.3
"2016-05-26 00:31:30",1666074,6.702,110.4,1.216,0.14,19.62,106.9896,17.17,18.18,34.79,0,110.8,13.07,17.98,72.4
"2016-05-26 00:32:00",1666075,6.523,110.2,1.834,0.12,19.64,106.989,17.17,18.16,34.78,0,110.8,13.07,17.98,72.2
"2016-05-26 00:32:30",1666076,6.327,108.6,1.59,0.309,19.63,106.9869,17.16,18.17,34.78,0,110.8,13.07,17.97,70.6
"2016-05-26 00:33:00",1666077,6.476,110,0.82,0.135,19.68,106.9867,17.16,18.16,34.74,0,110.8,13.07,17.97,72.0
"2016-05-26 00:33:30",1666078,6.518,110.7,0.845,0.097,19.71,106.9842,17.15,18.15,34.66,0,110.8,13.07,17.97,72.7
"2016-05-26 00:34:00",1666079,6.758,113.4,2.225,0.11,19.69,106.9809,17.15,18.15,34.69,0,110.8,13.07,17.96,75.4
"2016-05-26 00:34:30",1666080,6.724,115.5,1.045,0.076,19.72,106.9768,17.14,18.11,34.78,0,110.8,13.07,17.95,77.5
"2016-05-26 00:35:00",1666081,6.648,115.6,0.702,0.086,19.84,106.9679,17.11,18.13,34.61,0,110.8,13.07,17.92,77.6
"2016-05-26 00:35:30",1666082,6.887,116.6,1.533,0.064,19.68,106.9592,17.09,18.12,34.25,0,110.8,13.08,17.90,78.6
"2016-05-26 00:36:00",1666083,6.677,117.8,1.237,0.119,19.82,106.9581,17.09,18.12,34.18,0,110.8,13.07,17.90,79.8
"2016-05-26 00:36:30",1666084,6.799,118.4,1.13,0.129,19.77,106.9561,17.08,18.11,34.32,0,110.8,13.08,17.89,80.4
"2016-05-26 00:37:00",1666085,6.678,117.9,0.669,0.109,19.9,106.957,17.09,18.1,34.24,0,110.8,13.08,17.90,79.9
"2016-05-26 00:37:30",1666086,6.601,117.4,0.593,0.092,19.91,106.9583,17.09,18.11,34.27,0,110.8,13.08,17.90,79.4
"2016-05-26 00:38:00",1666087,6.727,117.1,0.582,0.069,19.83,106.9564,17.08,18.09,34.39,0,110.8,13.07,17.90,79.1
"2016-05-26 00:38:30",1666088,6.51,117,0.802,0.137,19.84,106.9574,17.09,18.11,34.52,0,110.8,13.07,17.90,79.0
"2016-05-26 00:39:00",1666089,6.239,114.6,0.806,0.075,19.66,106.9574,17.09,18.09,34.81,0,110.8,13.07,17.90,76.6
"2016-05-26 00:39:30",1666090,6.466,115.4,0.921,0.17,19.8,106.9589,17.09,18.1,35.01,0,110.8,13.07,17.90,77.4
"2016-05-26 00:40:00",1666091,6.565,117.7,0.671,0.063,19.9,106.958,17.09,18.09,35.12,0,110.8,13.07,17.90,79.7
"2016-05-26 00:40:30",1666092,6.463,119.7,1.042,0.187,19.86,106.9589,17.09,18.09,35.23,0,110.8,13.07,17.90,81.7
"2016-05-26 00:41:00",1666093,6.536,119.9,1.488,0.121,19.81,106.958,17.09,18.1,35.16,0,110.8,13.07,17.90,81.9
"2016-05-26 00:41:30",1666094,6.483,118.9,0.56,0.061,19.74,106.9592,17.09,18.1,35.36,0,110.8,13.07,17.90,80.9
"2016-05-26 00:42:00",1666095,6.438,119.7,1.041,0.064,19.68,106.9592,17.09,18.08,35.22,0,110.8,13.07,17.90,81.7
"2016-05-26 00:42:30",1666096,6.281,119.9,0.633,0.033,19.91,106.9589,17.09,18.08,35.03,0,110.8,13.07,17.90,81.9
"2016-05-26 00:43:00",1666097,6.165,118.1,0.506,0.067,19.88,106.9589,17.09,18.09,35.38,0,110.8,13.07,17.90,80.1
"2016-05-26 00:43:30",1666098,6.117,118.2,0.576,0.071,19.9,106.9589,17.09,18.08,35.57,0,110.8,13.07,17.90,80.2
"2016-05-26 00:44:00",1666099,5.975,117.5,0.486,0.052,19.95,106.9595,17.09,18.09,35.61,0,110.8,13.07,17.90,79.5
"2016-05-26 00:44:30",1666100,5.958,117.9,0.489,0.098,19.88,106.9595,17.09,18.09,35.57,0,110.8,13.07,17.90,79.9
"2016-05-26 00:45:00",1666101,5.921,116.9,0.793,0.04,19.85,106.9595,17.09,18.08,35.58,0,110.8,13.07,17.90,78.9
"2016-05-26 00:45:30",1666102,5.882,116.4,1.041,0.106,19.67,106.9595,17.09,18.09,35.54,0,110.8,13.07,17.90,78.4
"2016-05-26 00:46:00",1666103,6.024,116.3,0.647,0.102,19.54,106.9595,17.09,18.07,35.48,0,110.8,13.07,17.90,78.3
"2016-05-26 00:46:30",1666104,6.028,117.7,0.833,0.092,19.51,106.9595,17.09,18.08,35.11,0,110.8,13.08,17.90,79.7
"2016-05-26 00:47:00",1666105,6.305,118.5,1.306,0.08,19.47,106.9594,17.09,18.07,34.46,0,110.8,13.08,17.90,80.5
"2016-05-26 00:47:30",1666106,6.503,117.6,1.216,0.092,19.45,106.9682,17.11,18.08,34.78,0,110.8,13.08,17.93,79.6
"2016-05-26 00:48:00",1666107,6.491,117,1.742,0.09,19.44,106.9831,17.15,18.09,35.13,0,110.8,13.08,17.96,79.0
"2016-05-26 00:48:30",1666108,6.411,116.3,1.022,0.12,19.44,106.9912,17.17,18.1,35.19,0,110.8,13.08,17.98,78.3
"2016-05-26 00:49:00",1666109,6.44,115.3,0.639,0.08,19.5,106.9932,17.18,18.11,35.18,0,110.8,13.08,17.99,77.3
"2016-05-26 00:49:30",1666110,6.49,114.3,0.627,0.074,19.52,106.9917,17.17,18.13,35.08,0,110.8,13.08,17.99,76.3
"2016-05-26 00:50:00",1666111,6.44,114,0.814,0.089,19.62,106.9926,17.18,18.13,34.86,0,110.8,13.08,17.99,76.0
"2016-05-26 00:50:30",1666112,6.447,113.6,0.575,0.081,19.74,106.9929,17.18,18.13,34.69,0,110.8,13.08,17.99,75.6
"2016-05-26 00:51:00",1666113,6.481,114.4,0.554,0.066,19.83,106.9935,17.18,18.14,34.71,0,110.8,13.08,17.99,76.4
"2016-05-26 00:51:30",1666114,6.542,113.5,0.697,0.06,19.87,107.0036,17.2,18.14,34.82,0,110.8,13.08,18.02,75.5
"2016-05-26 00:52:00",1666115,6.354,114.1,0.9,0.052,19.86,107.0129,17.23,18.16,34.88,0,110.8,13.08,18.04,76.1
"2016-05-26 00:52:30",1666116,6.135,113.8,0.702,0.072,19.62,107.0172,17.24,18.17,34.85,0,110.8,13.08,18.05,75.8
"2016-05-26 00:53:00",1666117,6.006,113.5,0.788,0.092,19.78,107.0177,17.24,18.17,34.87,0,110.8,13.08,18.05,75.5
"2016-05-26 00:53:30",1666118,5.922,113.9,1.132,0.105,19.92,107.0194,17.25,18.17,34.78,0,110.8,13.08,18.06,75.9
"2016-05-26 00:54:00",1666119,5.866,114.2,0.672,0.081,19.95,107.0177,17.24,18.18,34.68,0,110.8,13.08,18.05,76.2
"2016-05-26 00:54:30",1666120,5.929,116,1.188,0.06,20,107.0169,17.24,18.17,34.6,0,110.8,13.07,18.05,78.0
"2016-05-26 00:55:00",1666121,5.845,115.2,1.045,0.067,20.02,107.0107,17.22,18.18,34.51,0,110.8,13.08,18.03,77.2
"2016-05-26 00:55:30",1666122,5.966,112.7,0.57,0.071,19.83,107.0064,17.21,18.17,34.48,0,110.7,13.07,18.02,74.7
"2016-05-26 00:56:00",1666123,5.929,112.9,0.81,0.08,19.87,107.0014,17.2,18.18,34.51,0,110.8,13.07,18.01,74.9
"2016-05-26 00:56:30",1666124,5.976,112.4,1.36,0.064,19.78,106.994,17.18,18.18,34.47,0,110.8,13.07,17.99,74.4
"2016-05-26 00:57:00",1666125,6.05,112.1,0.808,0.08,19.61,106.9929,17.18,18.17,34.68,0,110.8,13.07,17.99,74.1
"2016-05-26 00:57:30",1666126,6.432,112.2,0.732,0.106,19.86,106.9929,17.18,18.17,34.85,0,110.8,13.07,17.99,74.2
"2016-05-26 00:58:00",1666127,6.325,112.8,0.578,0.054,19.87,106.9932,17.18,18.18,34.93,0,110.8,13.07,17.99,74.8
"2016-05-26 00:58:30",1666128,6.21,112.9,1.007,0.046,19.77,106.9929,17.18,18.17,34.87,0,110.7,13.07,17.99,74.9
"2016-05-26 00:59:00",1666129,6.212,112.4,0.187,0.08,19.79,106.9932,17.18,18.17,34.87,0,110.8,13.07,17.99,74.4
"2016-05-26 00:59:30",1666130,6.009,113.5,0.917,0.072,19.83,106.9929,17.18,18.16,34.81,0,110.7,13.07,17.99,75.5
"2016-05-26 01:00:00",1666131,6.016,112.9,0.989,0.183,19.87,106.9932,17.18,18.18,34.8,0,110.8,13.07,17.99,74.9
"2016-05-26 01:00:30",1666132,6.217,113.6,1.586,0.147,19.8,106.9899,17.17,18.16,34.99,0,110.7,13.07,17.98,75.6
"2016-05-26 01:01:00",1666133,6.249,112.6,1.051,0.121,19.74,106.9845,17.16,18.16,35.01,0,110.7,13.07,17.97,74.6
"2016-05-26 01:01:30",1666134,6.287,112.7,0.683,0.086,19.8,106.9789,17.14,18.15,35.14,0,110.7,13.07,17.95,74.7
"2016-05-26 01:02:00",1666135,6.227,112.8,0.505,0.049,19.71,106.964,17.1,18.13,35.17,0,110.8,13.07,17.91,74.8
"2016-05-26 01:02:30",1666136,6.075,113.5,0.8,0.084,19.66,106.9595,17.09,18.12,35.13,0,110.7,13.07,17.90,75.5
"2016-05-26 01:03:00",1666137,6.224,113.1,0.525,0.087,19.65,106.9595,17.09,18.13,35.24,0,110.7,13.08,17.90,75.1
"2016-05-26 01:03:30",1666138,6.289,113.4,0.998,0.081,19.66,106.9595,17.09,18.12,35.49,0,110.7,13.08,17.90,75.4
"2016-05-26 01:04:00",1666139,6.331,115.4,0.95,0.082,19.65,106.9595,17.09,18.11,35.49,0,110.7,13.08,17.90,77.4
"2016-05-26 01:04:30",1666140,6.536,114.7,0.387,0.07,19.85,106.9595,17.09,18.1,35.53,0,110.8,13.08,17.90,76.7
"2016-05-26 01:05:00",1666141,6.608,115,0.536,0.101,19.75,106.9595,17.09,18.09,35.74,0,110.7,13.08,17.90,77.0
"2016-05-26 01:05:30",1666142,6.653,115.2,0.55,0.073,19.71,106.9595,17.09,18.11,35.86,0,110.7,13.08,17.90,77.2
"2016-05-26 01:06:00",1666143,6.635,116.2,0.979,0.055,19.84,106.9595,17.09,18.1,35.68,0,110.7,13.08,17.90,78.2
"2016-05-26 01:06:30",1666144,6.333,116.8,0.584,0.14,19.56,106.9595,17.09,18.09,35.65,0,110.8,13.08,17.90,78.8
"2016-05-26 01:07:00",1666145,6.419,115.5,0.915,0.08,19.63,106.9595,17.09,18.09,35.84,0,110.7,13.08,17.90,77.5
"2016-05-26 01:07:30",1666146,6.439,115.4,0.976,0.101,19.69,106.9595,17.09,18.08,35.74,0,110.7,13.08,17.90,77.4
"2016-05-26 01:08:00",1666147,6.409,115.1,0.939,0.094,19.77,106.9595,17.09,18.08,35.47,0,110.7,13.08,17.90,77.1
"2016-05-26 01:08:30",1666148,6.486,114.5,0.512,0.1,19.83,106.9595,17.09,18.08,35.42,0,110.7,13.08,17.90,76.5
"2016-05-26 01:09:00",1666149,6.517,115.9,0.866,0.105,19.81,106.9595,17.09,18.09,35.36,0,110.7,13.08,17.90,77.9
"2016-05-26 01:09:30",1666150,6.509,115.1,0.82,0.076,19.8,106.9595,17.09,18.08,35.08,0,110.7,13.08,17.90,77.1
"2016-05-26 01:10:00",1666151,6.507,114,1.348,0.073,19.75,106.9595,17.09,18.08,35.31,0,110.7,13.08,17.90,76.0
"2016-05-26 01:10:30",1666152,6.326,110.3,1.142,0.123,19.68,106.9595,17.09,18.08,36.03,0,110.7,13.08,17.90,72.3
"2016-05-26 01:11:00",1666153,6.397,111.5,1.154,0.153,19.67,106.9595,17.09,18.08,36.28,0,110.7,13.08,17.90,73.5
"2016-05-26 01:11:30",1666154,6.425,110.8,1.049,0.212,19.7,106.9595,17.09,18.08,36.42,0,110.7,13.08,17.90,72.8
"2016-05-26 01:12:00",1666155,6.273,111.8,0.716,0.104,19.81,106.9592,17.09,18.07,35.88,0,110.7,13.08,17.90,73.8
"2016-05-26 01:12:30",1666156,6.259,111.8,1.372,0.091,19.77,106.9595,17.09,18.07,35.6,0,110.7,13.08,17.90,73.8
"2016-05-26 01:13:00",1666157,6.157,108.6,1.519,0.092,19.71,106.9544,17.08,18.07,36.18,0,110.7,13.08,17.89,70.6
"2016-05-26 01:13:30",1666158,6.202,109.6,1.909,0.092,19.78,106.9496,17.07,18.06,36.17,0,110.7,13.08,17.88,71.6
"2016-05-26 01:14:00",1666159,6.086,108.6,0.989,0.125,19.72,106.9403,17.04,18.06,36.37,0,110.7,13.08,17.85,70.6
"2016-05-26 01:14:30",1666160,6.161,109.4,1.033,0.073,19.75,106.9307,17.02,18.04,36.61,0,110.7,13.08,17.83,71.4
"2016-05-26 01:15:00",1666161,6.151,110.9,0.692,0.078,19.78,106.9257,17,18.06,36.26,0,110.7,13.08,17.82,72.9
"2016-05-26 01:15:30",1666162,6.102,109.4,1.177,0.093,19.8,106.9257,17,18.04,36.28,0,110.7,13.08,17.82,71.4
"2016-05-26 01:16:00",1666163,6.363,107.6,1.228,0.139,19.89,106.9257,17,18.03,36.45,0,110.7,13.08,17.82,69.6
"2016-05-26 01:16:30",1666164,6.563,106.8,0.914,0.148,19.79,106.9257,17,18.03,36.82,0,110.7,13.08,17.82,68.8
"2016-05-26 01:17:00",1666165,6.659,109,1.023,0.098,19.86,106.9257,17,18.02,36.92,0,110.7,13.08,17.82,71.0
"2016-05-26 01:17:30",1666166,6.592,108.7,1.093,0.107,19.84,106.9245,17,18,36.9,0,110.7,13.08,17.81,70.7
"2016-05-26 01:18:00",1666167,6.785,109.7,1.587,0.157,19.8,106.9147,16.98,18,37.12,0,110.7,13.08,17.79,71.7
"2016-05-26 01:18:30",1666168,6.754,108.3,1.309,0.123,19.79,106.8978,16.93,17.99,37.11,0,110.7,13.08,17.74,70.3
"2016-05-26 01:19:00",1666169,6.834,110.2,0.809,0.129,19.82,106.8919,16.92,17.98,36.81,0,110.7,13.08,17.73,72.2
"2016-05-26 01:19:30",1666170,6.935,108.2,1.842,0.121,19.88,106.8919,16.92,17.97,36.49,0,110.7,13.08,17.73,70.2
"2016-05-26 01:20:00",1666171,7.072,107.9,0.525,0.058,19.93,106.8919,16.92,17.96,36.43,0,110.7,13.08,17.73,69.9
"2016-05-26 01:20:30",1666172,7.015,108.4,0.601,0.101,19.95,106.8919,16.92,17.95,36.2,0,110.7,13.08,17.73,70.4
"2016-05-26 01:21:00",1666173,6.97,107.8,0.738,0.109,19.87,106.8919,16.92,17.94,36.21,0,110.7,13.08,17.73,69.8
"2016-05-26 01:21:30",1666174,7.03,106.6,0.689,0.102,19.91,106.8888,16.91,17.94,36.3,0,110.7,13.08,17.72,68.6
"2016-05-26 01:22:00",1666175,7.148,106.5,0.385,0.065,19.9,106.8843,16.9,17.93,36.08,0,110.7,13.08,17.71,68.5
"2016-05-26 01:22:30",1666176,7.214,106.7,0.709,0.088,19.88,106.8789,16.88,17.92,36.06,0,110.7,13.09,17.70,68.7
"2016-05-26 01:23:00",1666177,7.266,106,0.521,0.057,19.86,106.875,16.87,17.91,36.34,0,110.7,13.09,17.69,68.0
"2016-05-26 01:23:30",1666178,7.19,104.1,0.528,0.037,19.86,106.8747,16.87,17.91,36.53,0,110.7,13.09,17.68,66.1
"2016-05-26 01:24:00",1666179,7.096,102.8,0.696,0.067,19.93,106.8671,16.85,17.89,36.7,0,110.7,13.09,17.67,64.8
"2016-05-26 01:24:30",1666180,6.862,103.3,1.565,0.211,19.92,106.8601,16.84,17.89,36.81,0,110.7,13.09,17.65,65.3
"2016-05-26 01:25:00",1666181,6.572,104,1.705,0.116,19.85,106.8581,16.83,17.89,36.58,0,110.7,13.09,17.64,66.0
"2016-05-26 01:25:30",1666182,6.477,101.2,4.154,0.275,19.69,106.8581,16.83,17.88,38.07,0,110.7,13.09,17.64,63.2
"2016-05-26 01:26:00",1666183,6.216,100.7,2.795,0.258,19.69,106.8581,16.83,17.87,38.66,0,110.7,13.09,17.64,62.7
"2016-05-26 01:26:30",1666184,6.984,104.8,4.539,0.732,19.72,106.8581,16.83,17.86,38.47,0,110.7,13.09,17.64,66.8
"2016-05-26 01:27:00",1666185,8.09,106.7,3.237,0.266,20.09,106.8573,16.83,17.86,35.56,0,110.7,13.09,17.64,68.7
"2016-05-26 01:27:30",1666186,7.825,111.4,6.877,0.45,20.17,106.8544,16.82,17.84,33.59,0,110.7,13.09,17.63,73.4
"2016-05-26 01:28:00",1666187,6.599,113.1,5.048,0.512,20.07,106.8553,16.82,17.83,32.84,0,110.7,13.09,17.64,75.1
"2016-05-26 01:28:30",1666188,6.131,124.1,5.178,0.747,20.47,106.8575,16.83,17.84,30.64,0,110.7,13.09,17.64,86.1
"2016-05-26 01:29:00",1666189,5.439,104.7,6.517,0.557,20.49,106.8581,16.83,17.82,30.28,0,110.7,13.08,17.64,66.7
"2016-05-26 01:29:30",1666190,5.742,96.3,7.725,0.94,20.3,106.8581,16.83,17.81,29.34,0,110.7,13.08,17.64,58.3
"2016-05-26 01:30:00",1666191,5.268,101.7,2.816,0.394,20.2,106.8609,16.84,17.82,30.96,0,110.7,13.08,17.65,63.7
"2016-05-26 01:30:30",1666192,4.827,114.4,4.657,1.214,20.52,106.8803,16.89,17.84,28.72,0,110.7,13.08,17.70,76.4
"2016-05-26 01:31:00",1666193,2.58,106.7,8.55,0.404,20.7,106.8913,16.92,17.85,26.47,0,110.7,13.08,17.73,68.7
"2016-05-26 01:31:30",1666194,2.329,124.4,9.58,0.547,20.56,106.8937,16.92,17.87,26.27,0,110.7,13.09,17.73,86.4
"2016-05-26 01:32:00",1666195,2.809,102.3,5.571,0.272,20.51,106.8925,16.92,17.89,26.27,0,110.7,13.08,17.73,64.3
"2016-05-26 01:32:30",1666196,2.519,113,10.62,0.465,20.39,106.9082,16.96,17.9,26.55,0,110.7,13.08,17.77,75.0
"2016-05-26 01:33:00",1666197,3.51,137.5,9.01,0.463,20.2,106.9263,17.01,17.92,28.31,0,110.7,13.08,17.82,99.5
"2016-05-26 01:33:30",1666198,3.505,129.4,4.364,0.34,20.27,106.9266,17.01,17.95,28.13,0,110.7,13.08,17.82,91.4
"2016-05-26 01:34:00",1666199,3.23,124.1,9.35,0.454,20.29,106.9382,17.04,17.96,27.73,0,110.7,13.08,17.85,86.1
"2016-05-26 01:34:30",1666200,2.996,141.4,4.845,0.314,20.4,106.9579,17.09,17.98,27.37,0,110.7,13.08,17.90,103.4
"2016-05-26 01:35:00",1666201,3.356,138,5.048,0.279,20.47,106.9601,17.09,17.99,26.73,0,110.7,13.08,17.90,100.0
"2016-05-26 01:35:30",1666202,3.077,142.4,4.119,0.387,20.33,106.9612,17.1,18.04,26.98,0,110.7,13.08,17.91,104.4
"2016-05-26 01:36:00",1666203,2.286,145.7,15.38,0.29,20.37,106.9858,17.16,18.05,27.47,0,110.7,13.08,17.97,107.7
"2016-05-26 01:36:30",1666204,1.873,167.5,8.65,0.369,20.4,106.9956,17.18,18.07,27.18,0,110.7,13.08,18.00,129.5
"2016-05-26 01:37:00",1666205,1.994,180.9,12.56,0.721,20.49,106.9962,17.19,18.09,27,0,110.7,13.08,18.00,142.9
"2016-05-26 01:37:30",1666206,2.407,164.7,13.82,0.322,20.34,106.998,17.19,18.11,26.6,0,110.7,13.08,18.00,126.7
"2016-05-26 01:38:00",1666207,2.297,158.1,8.38,0.43,20.23,107.0142,17.23,18.13,27.02,0,110.7,13.09,18.04,120.1
"2016-05-26 01:38:30",1666208,2.022,169,11.53,0.437,20.22,107.0277,17.27,18.16,27.24,0,110.7,13.09,18.08,131.0
"2016-05-26 01:39:00",1666209,2.16,147.1,6.258,0.311,20.2,107.0294,17.27,18.19,26.93,0,110.7,13.09,18.08,109.1
"2016-05-26 01:39:30",1666210,2.477,169.5,10.96,0.305,20.09,107.03,17.27,18.2,27.17,0,110.7,13.09,18.08,131.5
"2016-05-26 01:40:00",1666211,2.188,176.6,11.24,0.305,20.17,107.0436,17.31,18.22,27.05,0,110.7,13.09,18.12,138.6
"2016-05-26 01:40:30",1666212,1.837,186.3,6.64,0.374,20.11,107.0633,17.36,18.23,26.69,0,110.7,13.09,18.17,148.3
"2016-05-26 01:41:00",1666213,1.765,177.2,14.71,0.561,20.07,107.0629,17.36,18.26,26.95,0,110.7,13.09,18.17,139.2
"2016-05-26 01:41:30",1666214,2.089,176.9,8.02,0.619,20.1,107.0629,17.36,18.29,26.72,0,110.7,13.09,18.17,138.9
"2016-05-26 01:42:00",1666215,1.134,184.6,5.22,0.233,20.11,107.0693,17.37,18.32,26.48,0,110.7,13.09,18.19,146.6
"2016-05-26 01:42:30",1666216,0.714,182.2,10.6,0.104,19.97,107.0828,17.41,18.32,26.36,0,110.7,13.09,18.22,144.2
"2016-05-26 01:43:00",1666217,1.548,206.7,5.504,0.451,19.92,107.0935,17.43,18.34,26.49,0,110.7,13.09,18.25,168.7
"2016-05-26 01:43:30",1666218,1.862,212.5,5.738,0.19,19.93,107.0946,17.44,18.35,27.05,0,110.7,13.09,18.25,174.5
"2016-05-26 01:44:00",1666219,2.085,203.3,6.29,0.316,19.9,107.0946,17.44,18.38,27.2,0,110.7,13.09,18.25,165.3
"2016-05-26 01:44:30",1666220,1.804,211.5,2.997,0.172,19.99,107.0946,17.44,18.4,27,0,110.7,13.09,18.25,173.5
"2016-05-26 01:45:00",1666221,1.658,205.7,6.161,0.141,20.1,107.1098,17.48,18.4,26.62,0,110.7,13.09,18.29,167.7
"2016-05-26 01:45:30",1666222,1.548,201,3.4,0.072,20,107.1242,17.51,18.43,26.51,0,110.7,13.09,18.33,163.0
"2016-05-26 01:46:00",1666223,1.863,188.4,4.7,0.213,19.88,107.1284,17.52,18.46,27.16,0,110.7,13.09,18.34,150.4
"2016-05-26 01:46:30",1666224,1.843,186.4,6.661,0.313,19.77,107.1295,17.53,18.47,27.85,0,110.7,13.09,18.34,148.4
"2016-05-26 01:47:00",1666225,2.462,171.9,5.436,0.257,19.79,107.1433,17.56,18.49,27.74,0,110.7,13.08,18.38,133.9
"2016-05-26 01:47:30",1666226,2.2,167,5.329,0.411,19.75,107.1565,17.6,18.51,27.56,0,110.7,13.08,18.41,129.0